Location: Eferding
(48.3167°N, 14.0167°E)
Time: 18:10:55
(UTC+00:00)

Cosmos 2219 - Pass Details

Date: 12 November 2019
Orbit: 835 x 858 km, 71.1° (Epoch: 07 December)

Event Time Altitude Azimuth Distance (km) Brightness Sun altitude
Rises 17:14:59 0° 329° (NNW) 3,397 6.7 -17.6°
Reaches altitude 10° 17:17:27 10° 326° (NNW) 2,458 6.0 -18.0°
Maximum altitude 17:22:59 60° 248° (WSW) 953 3.7 -18.9°
Drops below altitude 10° 17:28:29 10° 170° (S) 2,442 5.5 -19.8°
Sets 17:30:56 0° 166° (SSE) 3,374 6.2 -20.2°
